Date,TemperatureHighF,TemperatureAvgF,TemperatureLowF,DewpointHighF,DewpointAvgF,DewpointLowF,HumidityHigh,HumidityAvg,HumidityLow,PressureMaxIn,PressureMinIn,WindSpeedMaxMPH,WindSpeedAvgMPH,GustSpeedMaxMPH,PrecipitationSumIn
2013-5-1,98.4,73.1,60.1,59.7,37.0,22.5,81,34,11,29.91,29.79,8,0,10,0.00
2013-5-2,76.8,66.4,60.3,64.9,50.2,36.0,98,62,24,29.94,29.85,3,0,7,0.00
2013-5-3,65.5,61.5,58.5,58.5,52.3,41.3,97,73,47,29.97,29.88,11,1,11,0.00
2013-5-4,72.0,62.7,55.6,43.2,33.3,27.3,62,35,21,30.33,29.76,0,0,1,0.00
2013-5-5,74.3,60.7,51.8,50.8,38.6,27.9,73,48,21,30.27,30.15,0,0,0,0.00
2013-5-6,83.5,66.0,54.1,45.9,31.8,17.4,65,33,14,30.15,29.91,0,0,0,0.00
2013-5-7,87.1,70.2,61.9,32.2,22.4,16.1,32,17,12,29.91,29.79,5,0,7,0.00
2013-5-8,72.7,65.5,61.9,65.6,35.8,17.6,98,42,15,29.82,29.71,10,0,12,0.00
2013-5-9,69.8,61.0,52.0,62.4,41.8,24.9,98,57,23,30.06,29.82,10,0,11,0.00
2013-5-10,73.2,58.7,49.8,42.9,32.2,22.8,56,39,19,30.12,30.03,0,0,0,0.00
2013-5-11,74.3,64.3,55.0,52.3,33.6,23.5,80,36,16,30.09,29.53,1,0,1,0.00
2013-5-12,82.9,63.9,54.5,30.9,24.8,21.1,38,23,14,30.03,29.97,0,0,1,0.00
2013-5-15,69.3,64.8,61.9,64.2,57.2,44.4,97,80,42,29.88,29.85,5,0,5,0.00
2013-5-16,69.8,62.6,58.1,67.1,53.8,41.7,97,76,38,30.09,29.82,7,0,7,0.00
2013-5-17,71.8,61.7,53.8,59.9,43.5,29.3,98,58,22,30.30,30.06,6,0,6,0.00
2013-5-18,67.3,61.3,52.9,63.7,48.6,36.6,98,68,33,30.27,30.03,0,0,1,0.00
2013-5-19,80.8,66.6,61.7,63.1,50.3,27.0,98,69,17,30.03,29.82,0,0,0,0.00
2013-5-20,75.4,67.9,60.6,69.5,49.5,31.5,97,57,24,29.91,29.82,6,0,8,0.00
2013-5-21,76.3,70.0,65.7,73.1,64.4,47.9,97,85,42,29.91,29.85,0,0,2,0.00
2013-5-22,76.1,69.5,65.1,74.6,63.0,42.2,98,83,34,29.91,29.79,10,0,10,0.00
2013-5-23,75.4,65.5,59.5,65.4,51.4,33.5,95,66,23,30.03,29.82,7,0,10,0.00
2013-5-24,70.3,63.4,58.3,65.5,55.2,39.5,98,78,35,29.97,29.85,0,0,0,0.00
2013-5-25,76.6,63.6,56.7,65.5,50.9,37.8,98,67,26,29.85,29.76,8,0,8,0.00
2013-5-26,63.9,61.2,58.1,52.3,44.2,38.3,76,54,39,29.79,29.68,6,0,7,0.00
2013-5-27,72.5,62.7,56.8,64.0,43.8,26.2,98,57,19,29.85,29.65,12,1,12,0.00
2013-5-28,75.2,61.9,54.5,57.7,34.3,24.4,89,39,18,29.91,29.79,10,0,10,0.00
2013-5-29,74.7,62.7,54.5,47.0,38.5,27.8,70,45,18,29.91,29.71,0,0,1,0.00
2013-5-30,73.6,63.6,56.7,43.9,37.1,27.3,51,39,18,29.88,29.74,8,0,11,0.00
2013-5-31,70.7,61.1,54.0,58.4,43.3,32.6,89,55,25,29.88,29.62,0,0,0,0.00